Location: Newark
(40.9833°N, 0.0333°W)
Time: 13:32:25
(UTC+00:00)

Vanguard 1 - All Passes

Search period start: 30 October 2020 00:00
Search period end: 09 November 2020 00:00
Orbit: 649 x 3833 km, 34.3° (Epoch: 29 October)

Date Brightness Start Highest point End Pass type
(mag) Time Alt. Az. Time Alt. Az. Time Alt. Az.
30 Oct - 09:58:51 10° SSW 10:15:48 36° SE 10:35:20 10° E daylight
30 Oct - 12:18:40 10° SW 12:40:32 63° SSE 13:01:09 10° E daylight
30 Oct - 14:43:27 10° W 15:07:02 71° S 15:23:55 10° ESE daylight
30 Oct - 17:11:04 10° W 17:31:30 52° SSW 17:43:58 10° SE visible
30 Oct - 19:41:38 10° W 19:51:49 19° SW 19:59:12 10° SSW visible
31 Oct - 08:06:05 10° SSE 08:14:37 15° ESE 08:24:18 10° E daylight
31 Oct - 10:18:28 10° SSW 10:36:25 44° SE 10:57:09 10° E daylight
31 Oct - 12:39:30 10° WSW 13:01:48 68° SSE 13:22:21 10° E daylight
31 Oct - 15:04:52 10° W 15:28:20 70° S 15:44:46 10° ESE daylight
31 Oct - 17:32:48 10° W 17:52:07 45° SW 18:04:08 10° SSE visible
31 Oct - 20:05:54 10° W 20:11:44 13° WSW 20:16:34 10° SW visible
01 Nov - 08:22:55 10° S 08:34:42 21° SE 08:48:58 10° E daylight
01 Nov - 10:38:29 10° SW 10:57:10 51° SSE 11:18:45 10° E daylight
01 Nov - 13:00:29 10° WSW 13:23:10 71° S 13:43:29 10° E daylight
01 Nov - 15:26:21 10° W 15:49:31 66° SSW 16:05:31 10° ESE daylight
01 Nov - 17:54:41 10° W 18:12:32 37° SW 18:24:02 10° SSE visible
02 Nov - 08:41:17 10° S 08:54:52 28° SE 09:12:03 10° E daylight
02 Nov - 10:58:48 10° SW 11:18:06 57° SSE 11:40:13 10° E daylight
02 Nov - 13:21:38 10° WSW 13:44:34 72° S 14:04:34 10° E daylight
02 Nov - 15:47:51 10° W 16:10:36 61° SSW 16:26:07 10° SE daylight
02 Nov - 18:16:51 10° W 18:32:47 30° SW 18:43:33 10° S visible
03 Nov - 09:00:25 10° SSW 09:15:10 35° SE 09:34:25 10° E daylight
03 Nov - 11:19:20 10° SW 11:39:11 63° SSE 12:01:35 10° E daylight
03 Nov - 13:42:52 10° W 14:05:59 72° S 14:25:36 10° ESE daylight
03 Nov - 16:09:26 10° W 16:31:30 54° SSW 16:46:33 10° SE daylight
03 Nov - 18:39:32 10° W 18:52:52 23° SW 19:02:30 10° S visible
04 Nov - 07:08:55 10° SE 07:14:54 13° ESE 07:21:45 10° E daylight
04 Nov - 09:20:03 10° SSW 09:35:37 43° SE 09:56:22 10° E daylight
04 Nov - 11:40:05 10° WSW 12:00:25 68° SSE 12:22:53 10° E daylight
04 Nov - 14:04:10 10° W 14:27:21 70° S 14:46:33 10° ESE daylight
04 Nov - 16:31:05 10° W 16:52:13 47° SW 17:06:45 10° SSE daylight
04 Nov - 19:03:17 10° W 19:12:49 16° WSW 19:20:25 10° SSW visible
05 Nov - 07:25:17 10° SSE 07:34:51 19° SE 07:47:03 10° E daylight
05 Nov - 09:40:03 10° SW 09:56:16 50° SSE 10:18:05 10° E daylight
05 Nov - 12:00:59 10° WSW 12:21:45 71° S 12:44:09 10° E daylight
05 Nov - 14:25:32 10° W 14:48:39 67° SSW 15:07:22 10° ESE daylight
05 Nov - 16:52:54 10° W 17:12:44 40° SW 17:26:40 10° SSE visible
06 Nov - 07:43:35 10° S 07:54:53 26° SE 08:10:20 10° E daylight
06 Nov - 10:00:19 10° SW 10:17:05 57° SSE 10:39:39 10° E daylight
06 Nov - 12:22:01 10° WSW 12:43:10 73° S 13:05:22 10° E daylight
06 Nov - 14:46:55 10° W 15:09:48 62° SSW 15:28:02 10° SE daylight
06 Nov - 17:14:59 10° W 17:33:05 33° SW 17:46:12 10° SSE visible
07 Nov - 08:02:42 10° SSW 08:15:03 33° SE 08:32:49 10° E daylight
07 Nov - 10:20:48 10° SW 10:38:04 63° SSE 11:01:08 10° E daylight
07 Nov - 12:43:08 10° W 13:04:36 72° S 13:26:31 10° ESE daylight
07 Nov - 15:08:23 10° W 15:30:48 56° SSW 15:48:31 10° SE daylight
07 Nov - 17:37:32 10° W 17:53:16 25° SW 18:05:12 10° S visible
08 Nov - 06:14:51 10° ESE 06:15:42 10° ESE 06:16:34 10° ESE visible
08 Nov - 08:22:20 10° SSW 08:35:23 41° SE 08:54:52 10° E daylight
08 Nov - 10:41:29 10° WSW 10:59:13 67° SSE 11:22:35 10° E daylight
08 Nov - 13:04:18 10° W 13:26:01 70° S 13:47:34 10° ESE daylight
08 Nov - 15:29:56 10° W 15:51:38 49° SSW 16:08:44 10° SE daylight
08 Nov - 18:00:59 10° W 18:13:20 19° SW 18:23:19 10° SSW visible
